STARLINK-5019 (55407 NORAD) Tracking and Keplerian Element Data

This shows tracking and keplerian element data for the satellite.

Feedback or suggestion? Click here.




ElementValue
Catalog55407
NameSTARLINK-5019
Epoch Orbit1518
Epoch Day127.12932154
Epoch Year2023
RAAN181.3454
Inclination69.996
Eccentricity0.0003368
Argument of Perigee273.2699
Mean Anonmoly86.8111
Mean Motion15.69935997
Decay Rate2.716E-05
L11 55407U 23014S 23127.12932154 .00002716 00000+0 24337-4 0 9991
L22 55407 69.9960 181.3454 0003368 273.2699 86.8111 15.69935997 15189



Live tracking and technical data element details for STARLINK-5019 (NORAD 55407). STARLINK-5019 can be tracked NOW for your location showing map with azimuth and elevation plus other details from your city location.







IsCatalogInMostPopularTable: catalog: 55407, numindb: -1

Insert: records affected: 1


GetName: 55407 STARLINK-5019

Hit Count: inserted at: Sun, 28 May 2023 07:26:24 GMT